ELFIN-B (43616 NORAD) Tracking and Keplerian Element Data

This shows tracking and keplerian element data for the satellite.

Feedback or suggestion? Click here.




ElementValue
Catalog43616
NameELFIN-B
Epoch Orbit3388
Epoch Day114.17206221
Epoch Year2019
RAAN340.6948
Inclination93.0249
Eccentricity0.0018104
Argument of Perigee154.8644
Mean Anonmoly205.3495
Mean Motion15.37715096
Decay Rate3.24E-05
L11 43616U 18070D 19114.17206221 .00003240 00000-0 87321-4 0 9997
L22 43616 93.0249 340.6948 0018104 154.8644 205.3495 15.37715096 33883

Live tracking and technical data element details for ELFIN-B (NORAD 43616). ELFIN-B can be tracked NOW for your location showing map with azimuth and elevation plus other details from your city location.

Track the satellite on the map from your city or location and see movement details for azimuth, elevation, latitude, longitude, range, height, and movement on the map or in text.







IsCatalogInMostPopularTable: catalog: 43616, numindb: 86
Update: records affected: 1



GetName: 43616 ELFIN-B

Hit Count: updated at: Thu, 25 Apr 2019 20:07:50 GMT